| time (UTC) | temp C | wind direction | speed KPH | gust KPH | rain 1hr cm | rain 24hr cm | rain mn cm | humidity % | barometer mb |
| 20260505111002 | 11 | 0 | 0.0 | 0.0 | 0.00 | 0.00 | 0.00 | 73 | 1015.9 |
| 20260505110503 | 11 | 0 | 0.0 | 0.0 | 0.00 | 0.00 | 0.00 | 73 | 1016.0 |
| 20260505101503 | 12 | 0 | 0.0 | 0.0 | 0.00 | 0.00 | 0.00 | 68 | 1016.0 |
| 20260505101004 | 12 | 0 | 0.0 | 0.0 | 0.00 | 0.00 | 0.00 | 67 | 1016.0 |
| 20260505100503 | 12 | 0 | 0.0 | 0.0 | 0.00 | 0.00 | 0.00 | 67 | 1016.0 |
| 20260505100003 | 12 | 0 | 0.0 | 0.0 | 0.00 | 0.00 | 0.00 | 66 | 1015.7 |
| 20260505095503 | 13 | 0 | 0.0 | 0.0 | 0.00 | 0.00 | 0.00 | 66 | 1015.7 |
| 20260505095002 | 13 | 0 | 0.0 | 0.0 | 0.00 | 0.00 | 0.00 | 65 | 1015.6 |
| 20260505094502 | 13 | 0 | 0.0 | 0.0 | 0.00 | 0.00 | 0.00 | 64 | 1015.6 |
| 20260505094003 | 13 | 26 | 0.0 | 1.6 | 0.00 | 0.00 | 0.00 | 65 | 1015.7 |
| 20260505093503 | 13 | 25 | 0.0 | 1.6 | 0.00 | 0.00 | 0.00 | 63 | 1015.7 |
| 20260505093003 | 13 | 25 | 0.0 | 1.6 | 0.00 | 0.00 | 0.00 | 63 | 1015.7 |
| 20260505092503 | 14 | 26 | 0.0 | 1.6 | 0.00 | 0.00 | 0.00 | 63 | 1015.7 |
| 20260505092002 | 14 | 354 | 0.0 | 6.4 | 0.00 | 0.00 | 0.00 | 62 | 1015.7 |
| 20260505091503 | 14 | 343 | 1.6 | 6.4 | 0.00 | 0.00 | 0.00 | 62 | 1015.7 |
| 20260505091003 | 15 | 313 | 0.0 | 1.6 | 0.00 | 0.00 | 0.00 | 60 | 1015.7 |
| 20260505090502 | 15 | 313 | 1.6 | 6.4 | 0.00 | 0.00 | 0.00 | 61 | 1015.7 |
| 20260505090003 | 14 | 333 | 1.6 | 6.4 | 0.00 | 0.00 | 0.00 | 58 | 1015.6 |
| 20260505085503 | 14 | 347 | 1.6 | 6.4 | 0.00 | 0.00 | 0.00 | 59 | 1015.4 |
| 20260505085003 | 14 | 333 | 1.6 | 11.3 | 0.00 | 0.00 | 0.00 | 59 | 1015.5 |
| 20260505084503 | 14 | 351 | 1.6 | 11.3 | 0.00 | 0.00 | 0.00 | 61 | 1015.4 |
| 20260505084003 | 14 | 107 | 0.0 | 4.8 | 0.00 | 0.00 | 0.00 | 61 | 1015.4 |
| 20260505083503 | 14 | 57 | 1.6 | 9.7 | 0.00 | 0.00 | 0.00 | 60 | 1015.4 |
| 20260505083003 | 15 | 42 | 1.6 | 9.7 | 0.00 | 0.00 | 0.00 | 60 | 1015.4 |
| 20260505082503 | 15 | 22 | 0.0 | 1.6 | 0.00 | 0.00 | 0.00 | 59 | 1015.2 |
| 20260505082003 | 15 | 10 | 0.0 | 6.4 | 0.00 | 0.00 | 0.00 | 58 | 1015.2 |
| 20260505081503 | 15 | 4 | 1.6 | 6.4 | 0.00 | 0.00 | 0.00 | 56 | 1015.3 |
| 20260505081003 | 15 | 320 | 1.6 | 6.4 | 0.00 | 0.00 | 0.00 | 56 | 1015.4 |
| 20260505080503 | 15 | 301 | 1.6 | 12.9 | 0.00 | 0.00 | 0.00 | 55 | 1015.3 |
| 20260505080003 | 15 | 303 | 3.2 | 12.9 | 0.00 | 0.00 | 0.00 | 57 | 1015.3 |
| 20260505075003 | 15 | 317 | 1.6 | 9.7 | 0.00 | 0.00 | 0.00 | 57 | 1015.0 |
| 20260505074503 | 15 | 293 | 1.6 | 9.7 | 0.00 | 0.00 | 0.00 | 56 | 1015.0 |
| 20260505074003 | 15 | 279 | 1.6 | 9.7 | 0.00 | 0.00 | 0.00 | 57 | 1015.0 |
| 20260505073003 | 15 | 334 | 1.6 | 11.3 | 0.00 | 0.00 | 0.00 | 57 | 1015.0 |
| 20260505072503 | 15 | 320 | 1.6 | 11.3 | 0.00 | 0.00 | 0.00 | 57 | 1015.1 |
| 20260505072004 | 15 | 258 | 1.6 | 4.8 | 0.00 | 0.00 | 0.00 | 60 | 1015.3 |
| 20260505071003 | 15 | 239 | 1.6 | 4.8 | 0.00 | 0.00 | 0.00 | 59 | 1015.3 |
| 20260505070003 | 15 | 335 | 1.6 | 4.8 | 0.00 | 0.00 | 0.00 | 59 | 1015.3 |
| 20260505065502 | 15 | 357 | 1.6 | 11.3 | 0.00 | 0.00 | 0.00 | 60 | 1015.3 |
| 20260505064003 | 15 | 289 | 1.6 | 4.8 | 0.00 | 0.00 | 0.00 | 60 | 1015.6 |
| 20260505063503 | 15 | 258 | 1.6 | 4.8 | 0.00 | 0.00 | 0.00 | 60 | 1015.5 |
| 20260505063003 | 14 | 248 | 1.6 | 1.6 | 0.00 | 0.00 | 0.00 | 62 | 1015.7 |
| 20260505062503 | 14 | 272 | 0.0 | 1.6 | 0.00 | 0.00 | 0.00 | 63 | 1015.7 |
| 20260505062003 | 14 | 286 | 0.0 | 4.8 | 0.00 | 0.00 | 0.00 | 66 | 1015.7 |
| 20260505061503 | 14 | 303 | 0.0 | 4.8 | 0.00 | 0.00 | 0.00 | 65 | 1015.7 |
| 20260505061003 | 13 | 317 | 0.0 | 4.8 | 0.00 | 0.00 | 0.00 | 66 | 1015.7 |
| 20260505060503 | 13 | 311 | 0.0 | 1.6 | 0.00 | 0.00 | 0.00 | 69 | 1015.7 |
| 20260505060004 | 14 | 312 | 1.6 | 4.8 | 0.00 | 0.00 | 0.00 | 67 | 1015.9 |
| 20260505055503 | 14 | 312 | 0.0 | 4.8 | 0.00 | 0.00 | 0.00 | 69 | 1015.7 |
| 20260505055003 | 14 | 312 | 0.0 | 1.6 | 0.00 | 0.00 | 0.00 | 67 | 1015.8 |
| 20260505054503 | 14 | 312 | 0.0 | 1.6 | 0.00 | 0.00 | 0.00 | 69 | 1015.8 |
| 20260505054004 | 14 | 318 | 0.0 | 4.8 | 0.00 | 0.00 | 0.00 | 67 | 1015.6 |
| 20260505053503 | 14 | 331 | 1.6 | 4.8 | 0.00 | 0.00 | 0.00 | 66 | 1015.6 |
| 20260505053003 | 14 | 346 | 0.0 | 4.8 | 0.00 | 0.00 | 0.00 | 68 | 1015.7 |
| 20260505051003 | 14 | 1 | 0.0 | 4.8 | 0.00 | 0.00 | 0.00 | 68 | 1015.8 |
| 20260505050503 | 14 | 1 | 0.0 | 4.8 | 0.00 | 0.00 | 0.00 | 67 | 1015.8 |
| 20260505041504 | 15 | 1 | 1.6 | 4.8 | 0.00 | 0.00 | 0.00 | 64 | 1015.9 |
| 20260505041004 | 15 | 1 | 0.0 | 4.8 | 0.00 | 0.00 | 0.00 | 65 | 1015.9 |
| 20260505040503 | 14 | 1 | 0.0 | 1.6 | 0.00 | 0.00 | 0.00 | 65 | 1015.9 |
| 20260505035504 | 14 | 1 | 0.0 | 4.8 | 0.00 | 0.00 | 0.00 | 68 | 1015.8 |
| 20260505035004 | 14 | 1 | 1.6 | 4.8 | 0.00 | 0.00 | 0.00 | 68 | 1015.8 |
| 20260505034504 | 14 | 1 | 0.0 | 4.8 | 0.00 | 0.00 | 0.00 | 70 | 1015.9 |
| 20260505034004 | 13 | 1 | 0.0 | 4.8 | 0.00 | 0.00 | 0.00 | 70 | 1015.9 |
| 20260505033504 | 13 | 1 | 0.0 | 1.6 | 0.00 | 0.00 | 0.00 | 71 | 1016.1 |
| 20260505032504 | 13 | 1 | 0.0 | 1.6 | 0.00 | 0.00 | 0.00 | 71 | 1016.2 |
| 20260505032003 | 13 | 1 | 0.0 | 1.6 | 0.00 | 0.00 | 0.00 | 71 | 1016.2 |
| 20260505031503 | 13 | 1 | 0.0 | 1.6 | 0.00 | 0.00 | 0.00 | 70 | 1016.2 |
| 20260505031003 | 14 | 1 | 0.0 | 1.6 | 0.00 | 0.00 | 0.00 | 71 | 1016.2 |
| 20260505030503 | 14 | 1 | 0.0 | 1.6 | 0.00 | 0.00 | 0.00 | 70 | 1016.1 |
| 20260505025504 | 14 | 1 | 0.0 | 1.6 | 0.00 | 0.00 | 0.00 | 69 | 1016.2 |
| 20260505025004 | 14 | 1 | 0.0 | 1.6 | 0.00 | 0.00 | 0.00 | 69 | 1016.2 |
| 20260505024503 | 14 | 1 | 0.0 | 1.6 | 0.00 | 0.00 | 0.00 | 68 | 1016.1 |
| 20260505024004 | 15 | 1 | 0.0 | 1.6 | 0.00 | 0.00 | 0.00 | 67 | 1016.1 |
| 20260505022503 | 15 | 0 | 0.0 | 0.0 | 0.00 | 0.00 | 0.00 | 65 | 1016.1 |
| 20260505021504 | 15 | 0 | 0.0 | 0.0 | 0.00 | 0.00 | 0.00 | 64 | 1016.1 |
| 20260505021003 | 15 | 1 | 0.0 | 1.6 | 0.00 | 0.00 | 0.00 | 64 | 1016.1 |
| 20260505020503 | 15 | 1 | 0.0 | 1.6 | 0.00 | 0.00 | 0.00 | 63 | 1015.9 |
| 20260505020004 | 15 | 1 | 0.0 | 1.6 | 0.00 | 0.00 | 0.00 | 63 | 1015.9 |
| 20260505015503 | 16 | 1 | 0.0 | 1.6 | 0.00 | 0.00 | 0.00 | 63 | 1015.9 |
| 20260505015003 | 16 | 1 | 0.0 | 1.6 | 0.00 | 0.00 | 0.00 | 62 | 1015.8 |
| 20260505014504 | 16 | 1 | 0.0 | 1.6 | 0.00 | 0.00 | 0.00 | 61 | 1015.7 |
| 20260505014004 | 16 | 1 | 0.0 | 1.6 | 0.00 | 0.00 | 0.00 | 61 | 1015.7 |
| 20260505013503 | 16 | 1 | 0.0 | 1.6 | 0.00 | 0.00 | 0.00 | 61 | 1015.7 |
| 20260505013003 | 16 | 1 | 0.0 | 1.6 | 0.00 | 0.00 | 0.00 | 59 | 1015.6 |
| 20260505012503 | 16 | 1 | 0.0 | 4.8 | 0.00 | 0.00 | 0.00 | 58 | 1015.5 |
| 20260505012003 | 16 | 1 | 0.0 | 4.8 | 0.00 | 0.00 | 0.00 | 57 | 1015.5 |
| 20260505011503 | 16 | 4 | 0.0 | 4.8 | 0.00 | 0.00 | 0.00 | 58 | 1015.4 |
| 20260505011003 | 16 | 10 | 0.0 | 4.8 | 0.00 | 0.00 | 0.00 | 58 | 1015.5 |
| 20260505010003 | 16 | 17 | 0.0 | 1.6 | 0.00 | 0.00 | 0.00 | 57 | 1015.3 |
| 20260505005503 | 16 | 21 | 1.6 | 4.8 | 0.00 | 0.00 | 0.00 | 57 | 1015.3 |
| 20260505005004 | 17 | 26 | 0.0 | 4.8 | 0.00 | 0.00 | 0.00 | 58 | 1015.3 |
| 20260505004504 | 17 | 26 | 0.0 | 4.8 | 0.00 | 0.00 | 0.00 | 58 | 1015.2 |
| 20260505003504 | 17 | 26 | 0.0 | 1.6 | 0.00 | 0.00 | 0.00 | 57 | 1015.1 |
| 20260505003004 | 17 | 29 | 1.6 | 9.7 | 0.00 | 0.00 | 0.00 | 56 | 1015.0 |
| 20260505002504 | 17 | 25 | 1.6 | 11.3 | 0.00 | 0.00 | 0.00 | 55 | 1014.9 |
| 20260505002003 | 17 | 10 | 0.0 | 11.3 | 0.00 | 0.00 | 0.00 | 55 | 1014.9 |
| 20260505001503 | 17 | 2 | 0.0 | 4.8 | 0.00 | 0.00 | 0.00 | 56 | 1015.2 |
| 20260505001004 | 18 | 19 | 0.0 | 4.8 | 0.00 | 0.00 | 0.00 | 55 | 1015.2 |
| 20260505000504 | 18 | 5 | 0.0 | 4.8 | 0.00 | 0.00 | 0.00 | 54 | 1015.0 |
| 20260505000004 | 18 | 341 | 0.0 | 4.8 | 0.00 | 0.00 | 0.00 | 52 | 1014.9 |
| 20260504235504 | 18 | 340 | 1.6 | 6.4 | 0.00 | 0.00 | 0.00 | 52 | 1015.0 |
| 20260504235004 | 18 | 8 | 1.6 | 11.3 | 0.00 | 0.00 | 0.00 | 51 | 1014.8 |
| 20260504234503 | 18 | 10 | 1.6 | 11.3 | 0.00 | 0.00 | 0.00 | 51 | 1014.7 |
| 20260504233504 | 18 | 359 | 4.8 | 11.3 | 0.00 | 0.00 | 0.00 | 50 | 1014.7 |
| 20260504233004 | 19 | 357 | 3.2 | 11.3 | 0.00 | 0.00 | 0.00 | 50 | 1014.7 |
| 20260504232504 | 19 | 357 | 1.6 | 11.3 | 0.00 | 0.00 | 0.00 | 51 | 1014.7 |
| 20260504231504 | 20 | 5 | 1.6 | 9.7 | 0.00 | 0.00 | 0.00 | 52 | 1014.6 |
| 20260504231004 | 20 | 22 | 3.2 | 11.3 | 0.00 | 0.00 | 0.00 | 50 | 1014.6 |
| 20260504230504 | 20 | 36 | 3.2 | 11.3 | 0.00 | 0.00 | 0.00 | 51 | 1014.6 |
| 20260504230003 | 20 | 29 | 3.2 | 12.9 | 0.00 | 0.00 | 0.00 | 53 | 1014.5 |
| 20260504225504 | 20 | 9 | 3.2 | 12.9 | 0.00 | 0.00 | 0.00 | 49 | 1014.4 |
| 20260504225004 | 21 | 358 | 3.2 | 16.1 | 0.00 | 0.00 | 0.00 | 49 | 1014.4 |
| 20260504224004 | 21 | 22 | 3.2 | 16.1 | 0.00 | 0.00 | 0.00 | 47 | 1014.5 |
| 20260504223503 | 21 | 343 | 3.2 | 11.3 | 0.00 | 0.00 | 0.00 | 46 | 1014.4 |
| 20260504223003 | 21 | 6 | 4.8 | 20.9 | 0.00 | 0.00 | 0.00 | 46 | 1014.6 |
| 20260504222503 | 21 | 13 | 4.8 | 20.9 | 0.00 | 0.00 | 0.00 | 46 | 1014.5 |
| 20260504222004 | 21 | 16 | 4.8 | 12.9 | 0.00 | 0.00 | 0.00 | 45 | 1014.5 |
| 20260504221503 | 21 | 9 | 4.8 | 12.9 | 0.00 | 0.00 | 0.00 | 46 | 1014.6 |
| 20260504221003 | 21 | 15 | 4.8 | 17.7 | 0.00 | 0.00 | 0.00 | 45 | 1014.6 |
| 20260504220504 | 21 | 17 | 6.4 | 22.5 | 0.00 | 0.00 | 0.00 | 46 | 1014.7 |
| 20260504220003 | 22 | 3 | 4.8 | 22.5 | 0.00 | 0.00 | 0.00 | 43 | 1014.6 |
| 20260504215002 | 22 | 4 | 4.8 | 17.7 | 0.00 | 0.00 | 0.00 | 45 | 1014.6 |
| 20260504214502 | 22 | 10 | 4.8 | 20.9 | 0.00 | 0.00 | 0.00 | 45 | 1014.6 |
| 20260504214002 | 22 | 21 | 6.4 | 20.9 | 0.00 | 0.00 | 0.00 | 46 | 1014.6 |
| 20260504213002 | 22 | 351 | 3.2 | 12.9 | 0.00 | 0.00 | 0.00 | 42 | 1014.5 |
| 20260504212502 | 22 | 15 | 3.2 | 17.7 | 0.00 | 0.00 | 0.00 | 44 | 1014.5 |
| 20260504212002 | 22 | 8 | 4.8 | 17.7 | 0.00 | 0.00 | 0.00 | 43 | 1014.6 |
| 20260504211502 | 22 | 344 | 4.8 | 17.7 | 0.00 | 0.00 | 0.00 | 43 | 1014.7 |
| 20260504211002 | 22 | 330 | 3.2 | 11.3 | 0.00 | 0.00 | 0.00 | 43 | 1014.6 |
| 20260504210502 | 22 | 345 | 3.2 | 11.3 | 0.00 | 0.00 | 0.00 | 43 | 1014.6 |
| 20260504210002 | 22 | 353 | 3.2 | 11.3 | 0.00 | 0.00 | 0.00 | 42 | 1014.6 |
| 20260504205502 | 22 | 12 | 3.2 | 11.3 | 0.00 | 0.00 | 0.00 | 40 | 1014.6 |
| 20260504204502 | 22 | 19 | 4.8 | 12.9 | 0.00 | 0.00 | 0.00 | 40 | 1014.7 |
| 20260504204002 | 22 | 25 | 3.2 | 12.9 | 0.00 | 0.00 | 0.00 | 38 | 1014.8 |
| 20260504203502 | 22 | 21 | 3.2 | 12.9 | 0.00 | 0.00 | 0.00 | 39 | 1014.8 |
| 20260504203001 | 22 | 17 | 3.2 | 12.9 | 0.00 | 0.00 | 0.00 | 38 | 1014.7 |
| 20260504202502 | 22 | 21 | 3.2 | 16.1 | 0.00 | 0.00 | 0.00 | 39 | 1014.8 |
| 20260504201502 | 22 | 22 | 3.2 | 17.7 | 0.00 | 0.00 | 0.00 | 40 | 1015.0 |
| 20260504200502 | 21 | 20 | 3.2 | 11.3 | 0.00 | 0.00 | 0.00 | 39 | 1015.1 |
| 20260504200002 | 21 | 23 | 4.8 | 17.7 | 0.00 | 0.00 | 0.00 | 38 | 1015.2 |
| 20260504195502 | 21 | 28 | 4.8 | 17.7 | 0.00 | 0.00 | 0.00 | 37 | 1015.1 |
| 20260504195002 | 21 | 18 | 3.2 | 12.9 | 0.00 | 0.00 | 0.00 | 38 | 1015.3 |
| 20260504194503 | 21 | 10 | 3.2 | 11.3 | 0.00 | 0.00 | 0.00 | 39 | 1015.3 |
| 20260504194003 | 21 | 9 | 3.2 | 11.3 | 0.00 | 0.00 | 0.00 | 38 | 1015.4 |
| 20260504193502 | 22 | 24 | 3.2 | 12.9 | 0.00 | 0.00 | 0.00 | 39 | 1015.4 |
| 20260504193002 | 22 | 29 | 3.2 | 12.9 | 0.00 | 0.00 | 0.00 | 40 | 1015.4 |
| 20260504191503 | 22 | 23 | 4.8 | 16.1 | 0.00 | 0.00 | 0.00 | 38 | 1015.6 |
| 20260504191002 | 22 | 23 | 4.8 | 12.9 | 0.00 | 0.00 | 0.00 | 38 | 1015.6 |
| 20260504190502 | 22 | 17 | 4.8 | 12.9 | 0.00 | 0.00 | 0.00 | 39 | 1015.7 |
| 20260504190003 | 22 | 3 | 3.2 | 11.3 | 0.00 | 0.00 | 0.00 | 39 | 1015.7 |
| 20260504185502 | 22 | 348 | 3.2 | 9.7 | 0.00 | 0.00 | 0.00 | 39 | 1015.8 |
| 20260504185002 | 22 | 333 | 3.2 | 9.7 | 0.00 | 0.00 | 0.00 | 38 | 1015.9 |
| 20260504184502 | 22 | 15 | 4.8 | 11.3 | 0.00 | 0.00 | 0.00 | 37 | 1015.9 |
| 20260504184002 | 22 | 28 | 4.8 | 11.3 | 0.00 | 0.00 | 0.00 | 39 | 1015.9 |
| 20260504183502 | 22 | 18 | 3.2 | 11.3 | 0.00 | 0.00 | 0.00 | 38 | 1016.0 |
| 20260504183003 | 22 | 18 | 3.2 | 11.3 | 0.00 | 0.00 | 0.00 | 37 | 1016.0 |
| 20260504182502 | 22 | 17 | 3.2 | 11.3 | 0.00 | 0.00 | 0.00 | 34 | 1016.0 |
| 20260504182003 | 22 | 317 | 1.6 | 9.7 | 0.00 | 0.00 | 0.00 | 35 | 1016.0 |
| 20260504181503 | 22 | 18 | 3.2 | 9.7 | 0.00 | 0.00 | 0.00 | 32 | 1016.0 |
| 20260504181002 | 22 | 24 | 4.8 | 11.3 | 0.00 | 0.00 | 0.00 | 34 | 1016.2 |
| 20260504175502 | 22 | 123 | 1.6 | 9.7 | 0.00 | 0.00 | 0.00 | 36 | 1016.2 |
| 20260504175002 | 22 | 169 | 1.6 | 4.8 | 0.00 | 0.00 | 0.00 | 36 | 1016.3 |
| 20260504174503 | 22 | 178 | 3.2 | 9.7 | 0.00 | 0.00 | 0.00 | 34 | 1016.3 |
| 20260504174002 | 22 | 181 | 3.2 | 9.7 | 0.00 | 0.00 | 0.00 | 32 | 1016.4 |
| 20260504173502 | 22 | 110 | 1.6 | 6.4 | 0.00 | 0.00 | 0.00 | 34 | 1016.5 |
| 20260504172502 | 21 | 165 | 1.6 | 6.4 | 0.00 | 0.00 | 0.00 | 37 | 1016.5 |
| 20260504172002 | 21 | 184 | 1.6 | 6.4 | 0.00 | 0.00 | 0.00 | 35 | 1016.6 |
| 20260504171503 | 21 | 22 | 1.6 | 4.8 | 0.00 | 0.00 | 0.00 | 36 | 1016.7 |
| 20260504171003 | 21 | 26 | 1.6 | 4.8 | 0.00 | 0.00 | 0.00 | 37 | 1016.8 |
| 20260504170503 | 21 | 12 | 0.0 | 4.8 | 0.00 | 0.00 | 0.00 | 37 | 1016.8 |
| 20260504150503 | 15 | 170 | 4.8 | 12.9 | 0.00 | 0.00 | 0.00 | 52 | 1018.3 |
| 20260504141002 | 12 | 190 | 1.6 | 9.7 | 0.00 | 0.00 | 0.00 | 67 | 1018.3 |
| 20260504140502 | 12 | 197 | 1.6 | 9.7 | 0.00 | 0.00 | 0.00 | 69 | 1018.3 |
| 20260504130503 | 10 | 104 | 0.0 | 4.8 | 0.00 | 0.00 | 0.00 | 73 | 1018.1 |